Location: Bois de la Silve
(44.4667°N, 6.7833°E)
Time: 00:11:55
(UTC+00:00)

USA 238 DEB - Pass Details

Date: 30 October 2020
Orbit: 1001 x 1211 km, 63.5° (Epoch: 22 November)

Event Time Altitude Azimuth Distance (km) Brightness Sun altitude
Exits shadow 03:02:17 39° 359° (N) 1,546 4.5 -33.5°
Drops below altitude 10° 03:07:03 10° 31° (NNE) 2,939 6.5 -32.6°
Sets 03:09:54 0° 37° (NE) 3,931 7.3 -32.1°
